TimeCST,TemperatureF,Dew PointF,Humidity,Sea Level PressureIn,VisibilityMPH,Wind Direction,Wind SpeedMPH,Gust SpeedMPH,PrecipitationIn,Events,Conditions,WindDirDegrees,DateUTC
12:53 AM,57.9,52.0,81,29.96,10.0,SE,4.6,-,N/A,,Overcast,140,2009-01-02 06:53:00
1:53 AM,57.0,52.0,83,29.97,10.0,ESE,4.6,-,N/A,,Overcast,120,2009-01-02 07:53:00
2:15 AM,57.2,51.8,82,29.96,10.0,SE,3.5,-,N/A,,Overcast,140,2009-01-02 08:15:00
2:53 AM,57.0,53.1,87,29.97,10.0,ESE,3.5,-,0.00,,Overcast,120,2009-01-02 08:53:00
3:53 AM,55.9,53.1,90,29.95,8.0,SE,5.8,-,N/A,,Overcast,140,2009-01-02 09:53:00
4:53 AM,57.0,53.1,87,29.94,7.0,SE,3.5,-,N/A,,Overcast,130,2009-01-02 10:53:00
5:48 AM,57.2,55.4,94,29.94,5.0,SE,5.8,-,N/A,,Overcast,130,2009-01-02 11:48:00
5:53 AM,57.0,55.0,93,29.95,5.0,SE,6.9,-,N/A,,Overcast,130,2009-01-02 11:53:00
6:24 AM,57.2,55.4,94,29.94,2.0,ESE,4.6,-,N/A,,Overcast,120,2009-01-02 12:24:00
6:35 AM,57.2,55.4,94,29.94,1.5,ESE,5.8,-,N/A,,Overcast,120,2009-01-02 12:35:00
6:53 AM,57.0,55.9,96,29.96,1.0,ESE,4.6,-,N/A,,Overcast,120,2009-01-02 12:53:00
7:04 AM,57.2,57.2,100,29.95,0.8,ESE,4.6,-,N/A,,Overcast,110,2009-01-02 13:04:00
7:37 AM,57.2,57.2,100,29.95,0.5,East,3.5,-,N/A,Fog,Fog,100,2009-01-02 13:37:00
7:53 AM,57.0,57.0,100,29.97,0.2,SE,4.6,-,N/A,Fog,Fog,130,2009-01-02 13:53:00
8:53 AM,57.9,57.9,100,29.98,0.2,Calm,Calm,-,N/A,Fog,Fog,0,2009-01-02 14:53:00
9:53 AM,59.0,59.0,100,29.99,0.2,Calm,Calm,-,N/A,Fog,Fog,0,2009-01-02 15:53:00
10:39 AM,60.8,60.8,100,29.98,0.8,Calm,Calm,-,N/A,,Overcast,0,2009-01-02 16:39:00
10:48 AM,60.8,60.8,100,29.98,1.2,Calm,Calm,-,N/A,,Overcast,0,2009-01-02 16:48:00
10:53 AM,61.0,61.0,100,29.99,1.8,Calm,Calm,-,N/A,,Overcast,0,2009-01-02 16:53:00
11:00 AM,62.6,60.8,94,29.97,3.0,Calm,Calm,-,N/A,,Overcast,0,2009-01-02 17:00:00
11:10 AM,62.6,60.8,94,29.97,3.0,Calm,Calm,-,N/A,,Overcast,0,2009-01-02 17:10:00
11:28 AM,62.6,60.8,94,29.96,5.0,Calm,Calm,-,N/A,,Overcast,0,2009-01-02 17:28:00
11:53 AM,63.0,62.1,97,29.97,7.0,Calm,Calm,-,N/A,,Overcast,0,2009-01-02 17:53:00
12:07 PM,64.4,62.6,94,29.95,8.0,Calm,Calm,-,N/A,,Overcast,0,2009-01-02 18:07:00
12:31 PM,66.2,62.6,88,29.93,9.0,Calm,Calm,-,N/A,,Mostly Cloudy,0,2009-01-02 18:31:00
12:53 PM,70.0,63.0,78,29.93,9.0,Variable,3.5,-,N/A,,Mostly Cloudy,0,2009-01-02 18:53:00
1:53 PM,75.0,63.0,66,29.90,10.0,SW,11.5,-,N/A,,Mostly Cloudy,220,2009-01-02 19:53:00
2:53 PM,73.9,62.1,66,29.89,10.0,SSW,10.4,-,N/A,,Scattered Clouds,200,2009-01-02 20:53:00
3:53 PM,73.9,62.1,66,29.89,10.0,SW,6.9,-,N/A,,Partly Cloudy,220,2009-01-02 21:53:00
4:53 PM,71.1,63.0,75,29.88,10.0,South,6.9,-,N/A,,Clear,190,2009-01-02 22:53:00
5:53 PM,69.1,62.1,78,29.89,10.0,South,4.6,-,N/A,,Clear,180,2009-01-02 23:53:00
6:53 PM,63.0,61.0,93,29.90,10.0,SSE,5.8,-,N/A,,Partly Cloudy,150,2009-01-03 00:53:00
7:53 PM,66.0,63.0,90,29.90,10.0,South,5.8,-,N/A,,Clear,170,2009-01-03 01:53:00
8:53 PM,66.0,64.0,93,29.90,10.0,SSE,5.8,-,N/A,,Scattered Clouds,160,2009-01-03 02:53:00
8:59 PM,66.2,64.4,94,29.88,10.0,SSE,5.8,-,N/A,,Mostly Cloudy,160,2009-01-03 02:59:00
9:18 PM,66.2,64.4,94,29.88,10.0,South,6.9,-,N/A,,Mostly Cloudy,170,2009-01-03 03:18:00
9:26 PM,66.2,64.4,94,29.88,10.0,South,6.9,-,N/A,,Mostly Cloudy,170,2009-01-03 03:26:00
9:38 PM,66.2,64.4,94,29.88,10.0,South,6.9,-,N/A,,Mostly Cloudy,170,2009-01-03 03:38:00
9:53 PM,66.9,64.9,93,29.89,10.0,South,5.8,-,N/A,,Overcast,170,2009-01-03 03:53:00
10:25 PM,66.2,64.4,94,29.89,10.0,South,8.1,-,N/A,,Mostly Cloudy,170,2009-01-03 04:25:00
10:53 PM,66.9,64.9,93,29.90,10.0,South,6.9,-,N/A,,Overcast,180,2009-01-03 04:53:00
11:53 PM,68.0,64.9,90,29.90,10.0,South,9.2,-,N/A,,Overcast,190,2009-01-03 05:53:00